sat.trackr.live / text

‹ back to catalog

HULIANWANG DIGUI-84

NORAD 65819 · 2025-220C

PAYLOAD ACTIVE UNKNOWN

§ Identity

Operator
Country
PRC
Launch date
2025-09-27
Launch site
TAISC
Launch vehicle
Mass (kg)
RCS (m²)

External: N2YO · Heavens-Above · Gunter

§ Orbital elements

Epoch: 2026-05-25T04:22:44.715072Z

Period
108.73 min
Inclination
86.4945°
Eccentricity
0.0001415
Mean motion
13.24405973 rev/d
Perigee alt
1,166.9 km
Apogee alt
1,169.0 km
Semi-major
7,546.1 km
B*
5.8218e-5
RAAN
51.5157°
Arg perigee
65.8602°
Mean anomaly
294.2680°
Rev number
3,187

§ Raw data

HULIANWANG DIGUI-841 65819U 25220C   26145.18246198  .00000040  00000+0  58218-4 0  99982 65819  86.4945  51.5157 0001415  65.8602 294.2680 13.24405973 31877

JSON: /api/v1/satellites/65819 · /tle

For live sub-satellite position, see the globe view (requires WebGL).

§ Visibility from observer

Set your observer location to see the next 7 days of passes ≥ 10°. The values pass through the URL so the page stays shareable.

No JS? Fill the form by hand. The geolocation button needs JavaScript.